Plymouth, NH

5:03 PM EDT on May 29, 2017 (GMT -0400)
Plymouth

Weather History for K1P1 - April, 2013

Change the Weather History Date:

Wednesday, April 24, 2013

  Actual Average (KLCI) Record (KLCI)
Temperature  
Mean Temperature 57 °F -  
Max Temperature 76 °F 59 °F 84 °F (2001)
Min Temperature 38 °F 37 °F 28 °F (2002)
Degree Days  
Heating Degree Days 8    
Growing Degree Days 7 (Base 50)    
Moisture  
Dew Point 37 °F    
Average Humidity 54    
Maximum Humidity 89    
Minimum Humidity 17    
Precipitation  
Precipitation 0.00 in - - ()
Sea Level Pressure  
Sea Level Pressure 29.88 in    
Wind  
Wind Speed 4 mph (WSW)    
Max Wind Speed 16 mph    
Max Gust Speed 22 mph    
Visibility 10 miles    
Events      
Averages and records for this station are not official NWS values.
T = Trace of Precipitation, MM = Missing Value Source: NWS Daily Summary

Daily Weather History Graph

Daily Weather History Graph

Search for Another Location

Airport or City:

Trip Planner

Search our weather history database for the weather conditions in past years. The results will help you decide how hot, cold, wet, or windy it might be!

Date:

Astronomy

Apr. 24, 2013 Rise Set
Actual Time 5:49 AM EDT 7:41 PM EDT
Civil Twilight 5:18 AM EDT 8:12 PM EDT
Nautical Twilight 4:40 AM EDT 8:50 PM EDT
Astronomical Twilight 4:00 AM EDT 9:31 PM EDT
Moon 6:40 PM EDT (4/24) 4:53 AM EDT (4/24)
Length of Visible Light 14h 54m
Length of Day
13h 52m
Waxing Gibbous, 98% of the Moon is Illuminated
Apr 24
Waxing Gibbous
Apr 25
Full
May 2
Last Quarter
May 9
New
May 18
First Quarter

Hourly Weather History & Observations

Time (EDT) Temp. Windchill Dew Point Humidity Pressure Visibility Wind Dir Wind Speed Gust Speed Precip Events Conditions
12:15 AM 41.5 °F 39.6 °F 37.4 °F 85% 30.17 in 10.0 mi SSE 3.5 mph - N/A   Overcast
12:55 AM 40.8 °F - 37.2 °F 87% 30.13 in 10.0 mi Calm Calm - N/A   Overcast
1:15 AM 40.5 °F - 37.0 °F 88% 30.11 in 10.0 mi Calm Calm - N/A   Overcast
1:35 AM 40.5 °F - 37.0 °F 88% 30.09 in 10.0 mi Calm Calm - N/A   Overcast
1:55 AM 40.6 °F - 37.4 °F 88% 30.09 in 10.0 mi Calm Calm - N/A   Overcast
2:15 AM 40.6 °F - 37.4 °F 88% 30.08 in 10.0 mi Calm Calm - N/A   Overcast
2:35 AM 40.5 °F - 37.4 °F 89% 30.07 in 10.0 mi Calm Calm - N/A   Overcast
2:55 AM 40.6 °F - 37.4 °F 88% 30.07 in 10.0 mi Calm Calm - N/A   Overcast
3:15 AM 41.0 °F - 37.8 °F 88% 30.07 in 10.0 mi Calm Calm - N/A   Overcast
3:35 AM 41.9 °F 40.0 °F 37.8 °F 85% 30.05 in 10.0 mi NW 3.5 mph - N/A   Overcast
3:55 AM 41.7 °F 37.3 °F 37.4 °F 85% 30.04 in 10.0 mi NW 6.9 mph - N/A   Overcast
4:15 AM 41.4 °F 36.2 °F 36.5 °F 83% 30.04 in 10.0 mi WNW 8.1 mph - N/A   Overcast
4:35 AM 40.5 °F 37.3 °F 35.6 °F 83% 30.03 in 10.0 mi NW 4.6 mph - N/A   Mostly Cloudy
4:55 AM 39.2 °F 34.2 °F 35.4 °F 86% 30.03 in 10.0 mi WNW 6.9 mph - N/A   Clear
5:15 AM 39.7 °F 34.9 °F 35.6 °F 85% 30.03 in 10.0 mi WNW 6.9 mph - N/A   Clear
5:35 AM 40.1 °F 36.1 °F 35.6 °F 84% 30.03 in 10.0 mi WNW 5.8 mph - N/A   Clear
6:15 AM 39.6 °F 35.4 °F 35.4 °F 85% 30.02 in 10.0 mi NNW 5.8 mph - N/A   Clear
6:35 AM 39.2 °F 35.0 °F 35.2 °F 86% 30.02 in 10.0 mi NW 5.8 mph - N/A   Clear
6:55 AM 38.8 °F 35.4 °F 35.2 °F 87% 30.02 in 10.0 mi NW 4.6 mph - N/A   Clear
7:15 AM 39.2 °F 34.2 °F 35.6 °F 87% 30.01 in 10.0 mi NW 6.9 mph - N/A   Clear
7:35 AM 39.2 °F 35.0 °F 35.4 °F 86% 30.01 in 10.0 mi NW 5.8 mph - N/A   Clear
7:55 AM 41.7 °F 35.6 °F 36.1 °F 81% 30.00 in 10.0 mi WNW 10.4 mph - N/A   Clear
8:15 AM 41.9 °F 35.4 °F 36.1 °F 80% 29.99 in 10.0 mi WNW 11.5 mph - N/A   Clear
8:35 AM 42.3 °F 34.4 °F 36.5 °F 80% 30.00 in 10.0 mi West 16.1 mph 21.9 mph N/A   Clear
8:55 AM 44.8 °F 39.0 °F 37.0 °F 74% 29.99 in 10.0 mi West 11.5 mph 19.6 mph N/A   Clear
9:15 AM 46.4 °F 42.4 °F 37.8 °F 72% 29.98 in 10.0 mi WNW 8.1 mph - N/A   Clear
9:35 AM 48.9 °F - 37.9 °F 66% 29.97 in 10.0 mi WNW 11.5 mph - N/A   Clear
9:55 AM 50.0 °F - 38.1 °F 64% 29.96 in 10.0 mi NW 8.1 mph 16.1 mph N/A   Clear
10:15 AM 51.8 °F - 38.5 °F 60% 29.94 in 10.0 mi NW 10.4 mph - N/A   Clear
10:35 AM 54.7 °F - 39.4 °F 56% 29.93 in 10.0 mi NW 9.2 mph - N/A   Clear
10:55 AM 57.2 °F - 39.6 °F 52% 29.91 in 10.0 mi NW 6.9 mph - N/A   Clear
11:15 AM 59.0 °F - 40.1 °F 50% 29.90 in 10.0 mi WNW 3.5 mph - N/A   Clear
11:55 AM 63.7 °F - 39.9 °F 42% 29.88 in 10.0 mi WNW 9.2 mph - N/A   Clear
12:15 PM 65.3 °F - 40.8 °F 41% 29.86 in 10.0 mi WNW 6.9 mph - N/A   Clear
12:35 PM 67.1 °F - 41.5 °F 39% 29.84 in 10.0 mi NW 5.8 mph - N/A   Clear
12:55 PM 68.2 °F - 42.3 °F 39% 29.83 in 10.0 mi Calm Calm - N/A   Clear
1:15 PM 69.1 °F - 41.4 °F 37% 29.81 in 10.0 mi SSE 3.5 mph - N/A   Clear
1:35 PM 69.8 °F - 41.0 °F 35% 29.80 in 10.0 mi SSE 3.5 mph - N/A   Clear
1:55 PM 71.1 °F - 41.2 °F 34% 29.79 in 10.0 mi East 4.6 mph - N/A   Clear
2:15 PM 71.8 °F - 40.5 °F 32% 29.77 in 10.0 mi NNE 3.5 mph - N/A   Clear
2:35 PM 73.4 °F - 38.1 °F 28% 29.76 in 10.0 mi Calm Calm - N/A   Clear
2:55 PM 73.6 °F - 38.3 °F 28% 29.75 in 10.0 mi SE 5.8 mph - N/A   Clear
3:15 PM 74.5 °F - 35.1 °F 24% 29.74 in 10.0 mi SSE 4.6 mph - N/A   Clear
3:35 PM 75.7 °F - 31.1 °F 19% 29.74 in 10.0 mi South 6.9 mph - N/A   Clear
3:55 PM 75.9 °F - 29.8 °F 18% 29.74 in 10.0 mi SE 5.8 mph - N/A   Clear
4:15 PM 76.1 °F - 35.8 °F 23% 29.74 in 10.0 mi South 3.5 mph - N/A   Clear
4:35 PM 74.3 °F - 28.9 °F 19% 29.73 in 10.0 mi SSE 9.2 mph - N/A   Mostly Cloudy
4:55 PM 74.8 °F - 27.5 °F 17% 29.73 in 10.0 mi SSW 3.5 mph - N/A   Overcast
5:15 PM 76.8 °F - 28.9 °F 17% 29.73 in 10.0 mi South 5.8 mph - N/A   Mostly Cloudy
5:35 PM 75.6 °F - 29.8 °F 19% 29.72 in 10.0 mi SSE 6.9 mph - N/A   Scattered Clouds
5:55 PM 75.7 °F - 29.1 °F 18% 29.72 in 10.0 mi South 5.8 mph - N/A   Clear
6:15 PM 74.7 °F - 32.2 °F 21% 29.72 in 10.0 mi South 6.9 mph - N/A   Clear
6:35 PM 73.6 °F - 33.6 °F 23% 29.72 in 10.0 mi South 4.6 mph - N/A   Scattered Clouds
6:55 PM 72.7 °F - 34.7 °F 25% 29.72 in 10.0 mi South 4.6 mph - N/A   Overcast
7:15 PM 72.0 °F - 36.0 °F 27% 29.72 in 10.0 mi Calm Calm - N/A   Overcast
7:35 PM 70.3 °F - 36.1 °F 29% 29.72 in 10.0 mi South 3.5 mph - N/A   Overcast
7:55 PM 68.4 °F - 36.9 °F 31% 29.73 in 10.0 mi SSE 3.5 mph - N/A   Overcast
8:15 PM 68.0 °F - 37.2 °F 32% 29.72 in 10.0 mi SE 4.6 mph - N/A   Overcast
8:35 PM 67.6 °F - 37.4 °F 33% 29.72 in 10.0 mi Calm Calm - N/A   Overcast
8:55 PM 66.9 °F - 38.1 °F 35% 29.73 in 10.0 mi ESE 3.5 mph - N/A   Mostly Cloudy
9:15 PM 66.0 °F - 38.8 °F 37% 29.72 in 10.0 mi East 4.6 mph - N/A   Scattered Clouds
9:35 PM 65.7 °F - 39.2 °F 38% 29.73 in 10.0 mi ESE 4.6 mph - N/A   Clear
9:55 PM 65.7 °F - 39.4 °F 38% 29.73 in 10.0 mi SSE 5.8 mph - N/A   Mostly Cloudy
11:15 PM 64.9 °F - 41.9 °F 43% 29.70 in 10.0 mi South 9.2 mph - N/A   Scattered Clouds
11:35 PM 64.4 °F - 42.6 °F 45% 29.71 in 10.0 mi SSE 6.9 mph - N/A   Mostly Cloudy
11:55 PM 64.0 °F - 43.3 °F 47% 29.72 in 10.0 mi SSW 6.9 mph - N/A   Overcast